Weather History for Indianapolis, IN

Change the Weather History Date:

Saturday, May 18, 2013

  Actual Average (KEYE) Record (KEYE)
Temperature  
Mean Temperature 70 °F 63 °F  
Max Temperature 79 °F 73 °F 84 °F (1998)
Min Temperature 61 °F 54 °F 39 °F (2002)
Degree Days  
Heating Degree Days 0 4  
Month to date heating degree days 103  
Since 1 July heating degree days 5298  
Cooling Degree Days 4 2  
Month to date cooling degree days 25  
Year to date cooling degree days 40  
Growing Degree Days 20 (Base 50)    
Moisture  
Dew Point 61 °F    
Average Humidity 76    
Maximum Humidity 90    
Minimum Humidity 50    
Precipitation  
Precipitation 0.03 in 0.18 in 0.45 in (2004)
Month to date precipitation 3.43  
Year to date precipitation 14.97  
Sea Level Pressure  
Sea Level Pressure 30.04 in    
Wind  
Wind Speed 3 mph (East)    
Max Wind Speed 9 mph    
Max Gust Speed -    
Visibility 8 miles    
Events Rain    
T = Trace of Precipitation, MM = Missing Value Source: NWS Daily Summary

Daily Weather History Graph

Daily Weather History Graph

Search for Another Location

Airport:

Trip Planner

Search our weather history database for the weather conditions in past years. The results will help you decide how hot, cold, wet, or windy it might be!

Date:

Astronomy

May. 18, 2013 Rise Set
Actual Time 6:26 AM EDT 8:56 PM EDT
Civil Twilight 5:55 AM EDT 9:27 PM EDT
Nautical Twilight 5:17 AM EDT 10:06 PM EDT
Astronomical Twilight 4:34 AM EDT 10:49 PM EDT
Moon 1:59 PM EDT (5/18) 2:18 AM EDT (5/18)
Length of Visible Light 15h 31m
Length of Day
14h 29m
First Quarter, 55% of the Moon is Illuminated
May 18
First Quarter
May 25
Full
May 31
Last Quarter
Jun 8
New
Jun 16
First Quarter

Hourly Weather History & Observations

Time (EDT) Temp. Dew Point Humidity Pressure Visibility Wind Dir Wind Speed Gust Speed Precip Events Conditions
12:15 AM 66.2 °F 61.7 °F 85% 30.06 in 7.0 mi SE 3.5 mph - N/A   Overcast
12:35 AM 66.2 °F 61.7 °F 85% 30.06 in 7.0 mi Calm Calm - N/A   Overcast
12:55 AM 66.0 °F 61.7 °F 86% 30.06 in 7.0 mi ESE 3.5 mph - N/A   Overcast
1:15 AM 66.2 °F 61.3 °F 84% 30.06 in 10.0 mi ESE 3.5 mph - N/A   Overcast
1:35 AM 66.0 °F 61.2 °F 84% 30.06 in 10.0 mi ESE 3.5 mph - N/A   Overcast
1:55 AM 65.8 °F 60.8 °F 84% 30.05 in 10.0 mi East 3.5 mph - N/A   Overcast
2:15 AM 65.7 °F 60.6 °F 84% 30.04 in 10.0 mi East 3.5 mph - N/A   Overcast
2:35 AM 65.3 °F 60.3 °F 84% 30.04 in 7.0 mi East 3.5 mph - N/A   Overcast
2:55 AM 64.9 °F 60.3 °F 85% 30.04 in 7.0 mi Calm Calm - N/A   Overcast
3:15 AM 64.6 °F 60.3 °F 86% 30.04 in 7.0 mi Calm Calm - N/A   Overcast
3:35 AM 64.4 °F 60.3 °F 86% 30.05 in 7.0 mi Calm Calm - N/A   Overcast
3:55 AM 64.4 °F 60.1 °F 86% 30.05 in 5.0 mi Calm Calm - N/A   Overcast
4:15 AM 63.7 °F 59.9 °F 87% 30.05 in 5.0 mi Calm Calm - N/A   Mostly Cloudy
4:35 AM 63.5 °F 59.7 °F 87% 30.04 in 4.0 mi Calm Calm - N/A   Clear
4:55 AM 62.4 °F 59.0 °F 89% 30.04 in 2.5 mi Calm Calm - N/A   Clear
5:15 AM 62.6 °F 59.4 °F 89% 30.05 in 2.5 mi Calm Calm - N/A   Clear
5:35 AM 61.7 °F 58.5 °F 89% 30.05 in 1.5 mi Calm Calm - N/A   Mist
5:55 AM 61.9 °F 59.0 °F 90% 30.05 in 0.8 mi Calm Calm - N/A   Mostly Cloudy
6:15 AM 62.4 °F 59.4 °F 90% 30.05 in 2.0 mi Calm Calm - N/A   Scattered Clouds
6:35 AM 62.6 °F 59.7 °F 90% 30.06 in 1.8 mi ENE 3.5 mph - N/A   Mist
6:55 AM 63.0 °F 59.9 °F 90% 30.06 in 1.5 mi East 3.5 mph - N/A   Scattered Clouds
7:15 AM 63.5 °F 60.3 °F 89% 30.08 in 1.8 mi ENE 3.5 mph - N/A   Overcast
7:35 AM 63.5 °F 60.6 °F 90% 30.08 in 2.0 mi East 4.6 mph - N/A   Overcast
7:55 AM 63.9 °F 60.8 °F 90% 30.08 in 2.0 mi ENE 5.8 mph - N/A   Overcast
8:15 AM 63.9 °F 60.8 °F 90% 30.08 in 2.5 mi ENE 3.5 mph - N/A   Overcast
8:35 AM 64.4 °F 61.0 °F 89% 30.09 in 3.0 mi ENE 3.5 mph - N/A   Overcast
8:55 AM 64.8 °F 61.0 °F 88% 30.09 in 4.0 mi East 5.8 mph - N/A   Overcast
9:15 AM 65.3 °F 60.8 °F 85% 30.09 in 4.0 mi East 5.8 mph - N/A   Overcast
9:35 AM 65.3 °F 60.8 °F 85% 30.09 in 4.0 mi ESE 4.6 mph - N/A   Overcast
9:55 AM 64.8 °F 60.8 °F 87% 30.08 in 2.5 mi East 5.8 mph - 0.03 in Rain Light Rain
10:15 AM 65.3 °F 61.3 °F 87% 30.08 in 3.0 mi East 6.9 mph - N/A   Overcast
10:35 AM 66.6 °F 62.4 °F 86% 30.08 in 4.0 mi ESE 8.1 mph - N/A   Haze
10:55 AM 68.2 °F 62.8 °F 83% 30.08 in 5.0 mi SE 5.8 mph - N/A   Haze
11:15 AM 70.3 °F 63.5 °F 79% 30.07 in 7.0 mi ESE 8.1 mph - N/A   Mostly Cloudy
11:35 AM 70.3 °F 62.2 °F 75% 30.08 in 10.0 mi SE 3.5 mph - N/A   Mostly Cloudy
11:55 AM 70.2 °F 61.3 °F 74% 30.08 in 10.0 mi ESE 4.6 mph - N/A   Overcast
12:15 PM 70.2 °F 61.7 °F 74% 30.08 in 10.0 mi East 4.6 mph - N/A   Overcast
12:35 PM 70.0 °F 61.3 °F 74% 30.08 in 10.0 mi East 3.5 mph - N/A   Overcast
12:55 PM 70.2 °F 61.2 °F 73% 30.08 in 10.0 mi East 3.5 mph - N/A   Overcast
1:15 PM 70.3 °F 61.3 °F 73% 30.07 in 10.0 mi ESE 3.5 mph - N/A   Overcast
1:35 PM 70.7 °F 61.0 °F 71% 30.06 in 10.0 mi Calm Calm - N/A   Overcast
1:55 PM 72.3 °F 61.2 °F 68% 30.06 in 10.0 mi SE 3.5 mph - N/A   Overcast
2:15 PM 72.0 °F 61.2 °F 69% 30.05 in 10.0 mi East 4.6 mph - N/A   Overcast
2:35 PM 72.5 °F 61.2 °F 67% 30.05 in 10.0 mi ESE 4.6 mph - N/A   Overcast
2:55 PM 72.1 °F 61.7 °F 70% 30.04 in 10.0 mi ESE 3.5 mph - N/A   Overcast
3:15 PM 72.7 °F 62.4 °F 70% 30.04 in 10.0 mi Calm Calm - N/A   Overcast
3:35 PM 72.9 °F 62.8 °F 71% 30.03 in 10.0 mi Calm Calm - N/A   Overcast
3:55 PM 73.6 °F 63.3 °F 70% 30.03 in 10.0 mi NE 4.6 mph - N/A   Mostly Cloudy
4:15 PM 75.4 °F 63.7 °F 67% 30.02 in 10.0 mi NE 6.9 mph - N/A   Mostly Cloudy
4:35 PM 76.6 °F 62.6 °F 62% 30.01 in 10.0 mi East 4.6 mph - N/A   Scattered Clouds
4:55 PM 77.2 °F 62.4 °F 60% 30.00 in 10.0 mi ESE 4.6 mph - N/A   Scattered Clouds
5:15 PM 78.1 °F 60.4 °F 54% 30.00 in 10.0 mi East 5.8 mph - N/A   Scattered Clouds
5:35 PM 78.6 °F 59.5 °F 52% 29.99 in 10.0 mi ESE 5.8 mph - N/A   Scattered Clouds
5:55 PM 78.4 °F 59.0 °F 51% 30.00 in 10.0 mi East 9.2 mph - N/A   Clear
6:15 PM 78.6 °F 58.3 °F 50% 30.00 in 10.0 mi ESE 5.8 mph - N/A   Clear
6:35 PM 78.3 °F 59.2 °F 52% 29.99 in 10.0 mi SE 6.9 mph - N/A   Scattered Clouds
6:55 PM 78.1 °F 60.1 °F 54% 29.99 in 10.0 mi ESE 8.1 mph - N/A   Clear
7:15 PM 77.7 °F 60.4 °F 55% 29.99 in 10.0 mi ESE 8.1 mph - N/A   Clear
7:35 PM 77.0 °F 60.3 °F 56% 29.99 in 10.0 mi East 5.8 mph - N/A   Clear
7:55 PM 76.6 °F 61.0 °F 58% 29.99 in 10.0 mi East 4.6 mph - N/A   Clear
8:15 PM 76.1 °F 60.8 °F 59% 29.99 in 10.0 mi East 4.6 mph - N/A   Clear
8:35 PM 75.2 °F 61.5 °F 62% 29.99 in 10.0 mi East 3.5 mph - N/A   Clear
8:55 PM 73.9 °F 61.3 °F 65% 29.99 in 10.0 mi East 3.5 mph - N/A   Clear
9:15 PM 72.9 °F 61.3 °F 67% 29.99 in 10.0 mi East 3.5 mph - N/A   Clear
9:35 PM 71.4 °F 61.3 °F 70% 29.99 in 10.0 mi Calm Calm - N/A   Clear
9:55 PM 70.7 °F 61.0 °F 71% 30.00 in 10.0 mi Calm Calm - N/A   Clear
10:15 PM 67.5 °F 61.2 °F 80% 30.00 in 10.0 mi Calm Calm - N/A   Scattered Clouds
10:35 PM 69.4 °F 61.7 °F 76% 30.00 in 10.0 mi East 4.6 mph - N/A   Scattered Clouds
10:55 PM 69.3 °F 61.7 °F 77% 30.00 in 10.0 mi Calm Calm - N/A   Scattered Clouds
11:15 PM 67.3 °F 61.5 °F 82% 30.00 in 10.0 mi Calm Calm - N/A   Mostly Cloudy
11:35 PM 68.9 °F 61.7 °F 78% 30.00 in 10.0 mi East 4.6 mph - N/A   Scattered Clouds
11:55 PM 68.4 °F 61.2 °F 78% 30.00 in 10.0 mi East 3.5 mph - N/A   Clear